Wind_Speed
17 16 16 16 15 16 15 15 16 15 14 13 13 13 12 12 12 11 11 10 9 9 8 7 7 6 5 5 4 3 3 3 2 2 1 1 2 2 2 2 2 2 2
19 18 18 17 17 17 17 16 16 16 15 15 15 15 14 13 13 13 12 11 11 10 10 9 8 8 7 6 5 5 4 4 3 3 3 2 2 2 2 2 2 2 2
20 20 19 19 19 19 18 18 18 18 16 16 16 16 15 14 14 14 13 13 12 11 10 10 10 9 9 8 7 6 6 5 4 4 4 4 3 3 3 3 2 2 2
22 22 21 21 21 21 20 20 20 20 18 17 17 17 17 16 16 16 15 14 14 13 12 12 11 11 10 10 9 8 7 7 6 5 4 4 4 4 3 3 3 3 2
24 24 23 23 23 23 22 21 21 21 21 20 19 18 18 17 17 17 16 16 16 15 14 14 13 13 12 12 11 10 9 8 8 7 6 5 5 5 4 4 4 4 4
26 26 26 26 25 25 24 24 23 23 22 22 21 21 20 19 18 18 18 18 17 17 16 16 15 14 14 14 13 12 11 10 10 9 8 7 6 6 6 5 5 5 5
29 29 28 28 27 27 26 27 26 24 24 24 23 23 22 22 21 20 19 19 18 18 18 18 17 16 16 16 15 15 14 13 12 11 10 10 9 8 8 8 7 7 7
30 31 31 30 30 29 29 29 29 28 27 26 26 25 25 24 23 22 22 21 20 19 19 19 19 18 17 17 17 17 16 15 14 13 13 12 11 10 10 9 9 9 9
32 32 32 33 32 32 32 31 31 30 29 29 28 27 26 26 25 24 24 23 23 22 21 21 20 20 19 19 19 18 18 17 16 15 14 14 13 13 12 11 11 10 10
33 34 34 34 34 34 34 34 33 33 32 31 30 30 29 28 27 26 26 26 25 24 23 23 22 22 21 21 21 20 20 19 18 17 16 16 15 15 14 13 12 12 12
35 35 35 36 35 35 35 35 35 35 34 33 33 32 32 31 30 29 28 28 27 27 26 25 24 23 23 23 23 22 22 21 20 19 18 18 17 16 16 15 14 14 13
36 36 37 37 37 37 36 36 36 37 37 35 34 33 33 33 32 31 30 30 29 28 27 27 26 25 25 25 25 24 24 24 23 21 21 20 19 18 18 17 16 16 15
37 37 38 39 38 38 38 38 38 38 39 39 37 35 35 35 34 33 32 32 31 30 29 29 27 26 26 27 27 26 25 25 25 24 23 22 21 20 19 19 18 18 17
38 38 38 39 39 39 39 39 39 39 40 40 39 37 37 37 36 34 34 33 33 32 31 30 29 29 28 27 27 27 27 26 26 26 25 24 23 22 21 20 20 19 19
39 39 40 41 41 40 40 41 41 41 42 41 41 40 39 38 37 36 36 35 36 35 34 33 32 31 30 29 29 28 28 28 28 27 27 26 25 25 23 22 22 21 20
40 40 41 42 42 42 42 42 42 43 43 43 43 42 42 40 39 38 38 38 38 38 37 35 34 33 32 31 30 30 29 30 30 29 29 28 27 26 25 24 23 23 23
40 41 42 43 44 44 44 44 44 44 44 45 45 44 44 43 41 41 40 40 40 39 38 36 35 34 33 32 32 32 31 30 30 31 31 30 30 28 27 26 25 24 25
40 41 44 45 45 45 45 44 46 46 45 46 45 45 45 43 41 40 40 41 41 41 39 37 37 35 34 33 33 32 32 32 31 31 31 32 32 30 29 28 27 26 25
40 40 42 45 46 46 45 45 45 46 46 46 46 46 46 45 43 41 41 42 42 41 41 39 38 37 36 35 34 33 33 33 33 33 32 32 32 32 31 30 29 28 27
39 40 41 43 45 45 46 45 45 46 46 47 46 46 46 45 44 43 43 43 44 43 42 41 40 38 37 36 35 35 34 34 34 34 33 32 32 32 33 33 32 31 29
37 38 39 42 43 44 45 44 45 46 46 48 47 46 45 44 43 43 44 44 44 44 44 43 41 39 39 38 36 36 35 35 34 35 35 34 34 33 34 34 34 33 32
37 38 38 40 42 44 44 44 44 45 45 47 47 46 45 44 43 41 41 43 44 44 44 44 43 41 40 39 38 37 36 36 36 35 36 36 36 35 35 35 35 35 34
37 38 39 40 40 42 44 44 45 45 46 46 46 46 45 45 44 43 42 41 42 42 43 43 43 42 41 40 39 39 38 38 37 37 37 37 37 37 37 37 37 36 36
35 37 39 40 40 41 43 44 45 44 45 45 45 46 46 45 45 43 43 43 42 42 42 43 44 44 42 41 40 40 39 39 38 39 38 38 38 38 39 39 38 38 38
34 35 37 39 40 41 42 43 44 43 44 45 45 46 46 46 45 44 43 44 43 42 41 42 44 44 43 41 41 41 40 40 40 40 40 40 40 40 40 40 40 40 39
33 34 36 37 39 40 42 43 44 44 44 44 45 45 46 46 46 45 44 44 43 43 43 42 43 43 43 43 42 41 40 41 41 41 41 41 41 41 41 41 40 40 40
Wind_Direction
240 238 236 235 235 236 235 234 231 229 228 227 226 225 227 227 225 223 224 224 221 223 224 220 218 221 223 225 225 223 224 228 241 254 281 305 327 335 344 358 11 9 12
242 240 239 238 238 239 240 238 236 234 233 232 230 228 227 228 228 227 227 226 225 226 227 224 224 226 227 227 229 230 230 233 242 247 261 276 289 299 311 323 339 348 1
243 241 240 239 241 241 242 241 238 235 234 233 232 232 230 230 230 229 228 228 226 228 231 229 229 230 230 229 232 234 235 239 243 249 256 262 272 279 286 297 310 319 327
243 242 241 240 241 242 242 242 239 237 235 233 233 234 233 232 232 232 233 232 229 230 232 233 234 234 234 233 233 236 239 244 245 249 256 260 262 268 275 278 285 296 302
244 243 242 241 242 243 242 242 241 237 235 234 234 235 235 233 232 232 234 235 234 233 234 235 237 237 237 237 237 238 240 243 246 251 253 254 254 257 267 269 271 280 290
245 243 242 242 242 243 243 244 243 239 236 234 235 236 236 235 235 235 235 236 237 237 237 237 238 239 239 240 239 239 241 242 245 251 254 253 253 255 258 262 266 273 281
247 245 244 243 243 243 243 243 242 241 239 237 235 236 237 237 236 236 238 237 238 239 240 240 239 239 239 241 241 242 242 243 245 249 254 255 255 256 257 259 266 270 276
248 247 245 243 243 243 243 243 242 241 241 238 237 237 238 239 238 237 238 240 241 241 242 242 241 241 240 240 242 243 243 244 247 248 251 253 254 255 258 260 265 269 272
248 246 245 244 243 243 244 243 242 241 240 239 238 238 239 239 239 239 239 241 243 243 244 243 242 241 241 241 243 243 243 243 245 248 250 251 251 254 258 261 264 267 269
248 246 245 244 243 243 244 243 242 241 240 239 238 238 239 239 241 241 241 242 243 244 244 243 242 241 242 243 243 243 243 244 245 247 249 250 250 252 255 260 263 264 265
248 247 246 244 243 243 243 243 242 241 240 239 238 238 239 240 241 242 242 242 244 244 243 243 243 243 244 244 243 244 243 244 245 247 249 249 250 252 254 257 260 262 262
249 249 247 245 244 243 243 242 241 241 240 239 238 238 238 239 241 242 243 243 243 243 244 244 244 243 244 244 243 244 244 245 246 248 249 249 249 251 253 256 258 259 260
250 250 248 246 245 244 243 242 241 241 240 240 239 237 237 237 239 241 242 243 242 242 243 244 244 243 243 243 243 244 245 245 246 247 249 249 250 251 253 255 258 258 258
250 249 248 247 245 244 243 242 241 240 240 240 239 237 237 236 238 240 241 243 243 242 241 242 243 243 243 243 243 244 245 246 247 248 248 249 250 251 252 254 257 258 257
252 250 248 248 246 244 243 243 242 240 239 239 239 239 238 237 239 240 242 243 243 242 241 242 243 245 245 245 245 244 245 246 248 248 248 249 250 251 252 254 255 256 257
253 251 249 248 246 244 244 243 242 241 240 239 240 241 241 240 239 240 242 243 243 241 241 242 244 244 245 245 245 244 245 246 247 249 248 248 250 251 252 253 254 256 257
255 252 250 248 246 245 245 244 242 241 241 240 241 241 242 241 240 241 241 242 242 242 241 241 243 244 245 246 246 245 246 246 248 248 249 248 247 249 250 252 254 256 258
256 253 250 248 247 246 245 244 242 242 241 240 240 241 241 241 240 240 241 241 241 240 241 241 242 243 244 246 247 248 248 248 248 248 248 247 247 248 248 251 253 254 257
256 255 252 248 247 246 244 243 241 240 240 240 240 241 242 242 241 240 240 240 239 239 240 241 242 244 244 246 248 249 248 248 248 247 248 247 247 248 248 249 252 254 255
256 255 253 249 247 245 242 242 241 240 240 239 240 242 242 242 241 240 240 241 241 240 241 242 243 244 245 246 248 248 248 248 248 248 248 248 248 249 250 250 252 254 254
256 254 253 250 247 244 242 242 241 239 239 239 240 242 242 241 240 240 240 241 242 242 242 242 243 244 245 246 247 248 247 248 248 247 247 248 248 250 251 252 253 254 255
256 254 253 250 246 242 242 242 242 241 239 239 239 240 240 240 240 240 241 241 242 242 241 242 243 244 245 247 247 247 248 249 249 248 248 248 249 250 251 253 253 254 256
257 254 252 250 245 244 242 241 241 241 239 238 237 238 238 239 241 241 242 242 242 243 243 242 242 243 245 247 247 248 248 249 250 250 249 249 250 251 252 253 254 254 256
258 255 252 249 247 244 242 240 241 241 238 237 236 236 237 239 241 242 243 242 243 243 242 242 243 243 243 244 246 247 249 249 250 250 250 251 251 253 253 254 256 255 256
259 257 253 249 248 244 241 241 241 240 238 236 236 237 237 239 240 242 242 242 242 243 244 243 242 242 242 243 245 247 248 249 250 251 251 252 252 254 254 255 256 256 257
262 260 256 249 246 244 243 242 240 239 237 237 236 237 237 238 240 242 242 243 243 243 244 244 243 242 243 243 244 246 248 250 251 251 252 252 253 254 254 254 255 256 256
Height
5834 5834 5835 5836 5837 5838 5839 5840 5841 5842 5843 5844 5845 5845 5846 5847 5848 5848 5849 5850 5850 5850 5851 5851 5852 5853 5853 5853 5854 5854 5854 5854 5854 5854 5854 5854 5853 5853 5853 5852 5852 5851 5850
5830 5831 5832 5833 5834 5835 5836 5837 5838 5839 5841 5841 5842 5843 5844 5845 5845 5846 5847 5847 5848 5849 5849 5850 5850 5851 5852 5852 5853 5853 5853 5853 5854 5854 5854 5853 5853 5853 5852 5852 5851 5851 5850
5826 5827 5828 5829 5830 5831 5832 5834 5835 5836 5837 5838 5839 5840 5841 5842 5843 5844 5844 5845 5846 5847 5847 5848 5849 5849 5850 5851 5851 5852 5852 5852 5852 5852 5852 5852 5852 5852 5852 5851 5851 5850 5850
5821 5822 5823 5825 5826 5827 5829 5830 5831 5833 5834 5835 5836 5837 5838 5839 5840 5841 5842 5842 5843 5844 5845 5846 5847 5848 5848 5849 5849 5850 5850 5851 5851 5851 5851 5851 5851 5851 5851 5851 5850 5850 5849
5816 5817 5819 5820 5821 5823 5824 5826 5827 5829 5830 5831 5832 5834 5835 5836 5837 5838 5839 5840 5841 5842 5843 5844 5844 5845 5846 5847 5847 5848 5849 5849 5849 5850 5850 5850 5850 5850 5850 5850 5849 5849 5848
5810 5811 5813 5815 5816 5818 5819 5821 5822 5824 5826 5827 5828 5830 5831 5833 5834 5835 5836 5837 5838 5839 5840 5841 5842 5843 5844 5844 5845 5846 5846 5847 5848 5848 5848 5848 5848 5848 5848 5848 5848 5848 5847
5803 5805 5806 5808 5810 5812 5814 5815 5817 5819 5821 5822 5824 5825 5827 5828 5830 5831 5832 5833 5834 5835 5836 5837 5839 5840 5841 5841 5842 5843 5844 5844 5845 5846 5846 5846 5846 5847 5847 5847 5847 5846 5846
5795 5797 5799 5801 5803 5805 5807 5809 5811 5813 5815 5817 5818 5820 5822 5824 5825 5826 5828 5829 5830 5832 5833 5834 5835 5836 5837 5838 5839 5840 5841 5841 5842 5843 5843 5844 5844 5844 5845 5845 5845 5845 5844
5787 5789 5791 5794 5796 5798 5800 5802 5804 5806 5808 5811 5812 5814 5816 5818 5820 5822 5823 5824 5826 5827 5828 5830 5831 5832 5833 5834 5835 5836 5837 5838 5839 5839 5840 5841 5841 5842 5842 5842 5842 5842 5842
5779 5781 5783 5785 5788 5790 5792 5794 5796 5799 5801 5804 5806 5808 5811 5813 5814 5816 5818 5819 5821 5822 5823 5825 5826 5827 5828 5830 5831 5832 5833 5834 5835 5836 5837 5838 5838 5839 5839 5839 5839 5840 5840
5770 5772 5774 5777 5779 5782 5784 5786 5789 5791 5794 5796 5799 5801 5803 5806 5808 5810 5812 5813 5815 5816 5818 5819 5821 5822 5823 5825 5826 5828 5829 5830 5831 5832 5833 5834 5835 5835 5836 5836 5836 5836 5837
5761 5763 5765 5768 5770 5773 5775 5778 5780 5783 5786 5788 5791 5793 5796 5798 5801 5803 5805 5807 5808 5810 5812 5813 5815 5816 5818 5819 5821 5822 5824 5825 5826 5828 5829 5829 5830 5831 5832 5832 5832 5833 5833
5751 5753 5755 5758 5761 5763 5766 5769 5772 5774 5777 5779 5782 5785 5788 5791 5793 5796 5798 5800 5802 5803 5805 5807 5809 5810 5812 5813 5815 5817 5818 5820 5821 5822 5824 5825 5826 5827 5827 5828 5828 5829 5829
5741 5743 5745 5748 5751 5753 5756 5760 5763 5765 5768 5771 5773 5777 5779 5782 5785 5788 5790 5792 5795 5797 5799 5800 5802 5804 5806 5807 5809 5811 5812 5814 5816 5817 5818 5819 5821 5822 5822 5823 5824 5824 5825
5730 5732 5734 5737 5740 5743 5746 5750 5753 5755 5758 5761 5764 5767 5771 5774 5777 5779 5782 5784 5787 5789 5791 5793 5795 5797 5799 5801 5803 5804 5806 5808 5809 5811 5812 5814 5815 5816 5817 5818 5819 5819 5820
5719 5721 5723 5725 5728 5732 5735 5738 5742 5745 5748 5751 5754 5758 5761 5765 5768 5771 5773 5776 5778 5781 5783 5786 5788 5790 5792 5794 5796 5798 5799 5801 5803 5804 5806 5807 5809 5810 5811 5812 5813 5814 5815
5707 5708 5710 5713 5717 5720 5723 5727 5730 5734 5737 5741 5744 5748 5751 5754 5758 5761 5764 5767 5770 5772 5774 5777 5780 5783 5785 5787 5789 5791 5792 5794 5796 5797 5799 5800 5802 5803 5805 5806 5807 5808 5809
5694 5695 5697 5700 5704 5707 5711 5715 5718 5722 5726 5729 5733 5737 5741 5744 5748 5751 5755 5758 5760 5763 5766 5769 5772 5775 5777 5779 5781 5783 5785 5787 5788 5790 5791 5793 5794 5796 5798 5799 5801 5802 5803
5682 5683 5684 5687 5690 5694 5698 5702 5706 5710 5714 5718 5722 5726 5730 5734 5738 5741 5745 5748 5751 5754 5757 5760 5763 5766 5769 5771 5773 5775 5777 5779 5781 5782 5784 5785 5787 5789 5790 5792 5794 5795 5796
5670 5671 5672 5674 5677 5681 5685 5689 5694 5698 5702 5706 5711 5715 5719 5723 5727 5731 5734 5737 5741 5744 5748 5751 5754 5757 5760 5763 5765 5767 5769 5771 5772 5774 5776 5777 5779 5781 5783 5784 5786 5788 5789
5658 5659 5659 5662 5664 5668 5673 5677 5682 5687 5690 5694 5699 5703 5708 5712 5716 5720 5723 5727 5730 5734 5738 5741 5744 5748 5751 5754 5756 5758 5760 5762 5764 5766 5767 5769 5771 5773 5775 5776 5778 5780 5781
5646 5647 5648 5650 5653 5657 5662 5666 5671 5675 5679 5683 5688 5692 5697 5702 5706 5709 5713 5716 5720 5723 5727 5731 5735 5739 5741 5744 5747 5749 5751 5754 5755 5757 5759 5761 5763 5764 5766 5768 5770 5772 5773
5636 5637 5639 5640 5643 5647 5650 5655 5659 5663 5667 5672 5677 5682 5687 5691 5695 5699 5703 5707 5711 5714 5717 5721 5725 5729 5732 5735 5737 5740 5742 5745 5747 5748 5750 5752 5754 5756 5757 5759 5761 5763 5764
5627 5627 5628 5630 5633 5636 5640 5644 5648 5652 5657 5662 5667 5672 5676 5681 5685 5689 5693 5697 5701 5704 5707 5711 5714 5718 5721 5724 5727 5730 5733 5735 5738 5740 5741 5743 5745 5746 5748 5750 5751 5753 5755
5618 5618 5619 5620 5623 5626 5629 5634 5638 5642 5647 5652 5656 5661 5666 5670 5674 5678 5683 5687 5691 5694 5697 5700 5704 5707 5711 5714 5717 5720 5723 5725 5727 5729 5732 5734 5735 5737 5738 5740 5742 5743 5745
5609 5609 5610 5611 5614 5617 5620 5624 5628 5632 5637 5641 5645 5650 5655 5660 5664 5668 5672 5676 5680 5684 5687 5690 5693 5697 5700 5704 5707 5710 5712 5715 5717 5719 5721 5723 5725 5727 5728 5730 5731 5733 5734